Terminal Aerodrome Forecast
Issued by NWS King Salmon, AK

Home | Current Version | Previous Version | Text Only | Print | Product List | Glossary On
Versions: 1 2 3 4 5 6 7 8 9 10 11 12 13 14 15 16 17 18 19 20 21 22 23 24 25 26 27 28 29 30 31
000
FTAK31 PANC 021144
TAFAKN
TAF
PAKN 021144Z 0212/0312 12010KT P6SM SCT050 OVC200
     FM021900 13012KT P6SM -RA SCT020 BKN035 OVC050
     FM030400 18007KT 5SM -SHRA BR SCT006 BKN010 OVC020=

USA.gov is the U.S. government's official web portal to all federal, state and local government web resources and services.